• In Belarus
  • List of Countries
  • For 7 days
  • Water Temperature
  • Satellite Maps
  • Weather Map
  • Weather Widgets
  • user-avatar
    Login

    Hourly Weather Ilebo

    Today, 20 April, Saturday

    Time Temperature Precipitation Wind Pressure Humidity
    00:00 +25°C° 0 mm 1 mps 722 mmHg 90%
    01:00 +25°C° 0 mm 1 mps 722 mmHg 89%
    02:00 +25°C° 0.4 mm 1 mps 721 mmHg 90%
    03:00 +24°C° 0.4 mm 1 mps 721 mmHg 92%
    04:00 +24°C° 0.4 mm 1 mps 721 mmHg 94%
    05:00 +24°C° 0 mm 1 mps 721 mmHg 93%
    06:00 +25°C° 0 mm 1 mps 722 mmHg 92%
    07:00 +26°C° 0 mm 1 mps 722 mmHg 89%
    08:00 +28°C° 0 mm 1 mps 722 mmHg 78%
    09:00 +31°C° 0 mm 1 mps 722 mmHg 67%
    10:00 +34°C° 0 mm 1 mps 723 mmHg 56%
    11:00 +35°C° 0 mm 1 mps 722 mmHg 50%
    12:00 +37°C° 0 mm 1 mps 721 mmHg 43%
    13:00 +39°C° 0 mm 1 mps 721 mmHg 40%
    14:00 +39°C° 0 mm 1 mps 721 mmHg 41%
    15:00 +37°C° 0 mm 1 mps 720 mmHg 42%
    16:00 +37°C° 0 mm 2 mps 720 mmHg 44%
    17:00 +34°C° 0 mm 1 mps 720 mmHg 49%
    18:00 +33°C° 0 mm 1 mps 720 mmHg 54%
    19:00 +31°C° 0 mm 1 mps 720 mmHg 59%
    20:00 +30°C° 0 mm 1 mps 720 mmHg 60%
    21:00 +30°C° 0 mm 1 mps 721 mmHg 62%
    22:00 +29°C° 0 mm 1 mps 721 mmHg 63%
    23:00 +29°C° 0 mm 1 mps 721 mmHg 63%

    Tomorrow, 21 April, Sunday

    Time Temperature Precipitation Wind Pressure Humidity
    00:00 +29°C° 0 mm 1 mps 720 mmHg 64%
    01:00 +26°C° 0 mm 0 mps 720 mmHg 64%
    02:00 +28°C° 0 mm 1 mps 720 mmHg 66%
    03:00 +27°C° 0 mm 1 mps 720 mmHg 68%
    04:00 +27°C° 0 mm 1 mps 720 mmHg 70%
    05:00 +28°C° 0 mm 1 mps 720 mmHg 68%
    06:00 +29°C° 0 mm 1 mps 721 mmHg 66%
    07:00 +29°C° 0 mm 1 mps 721 mmHg 65%
    08:00 +32°C° 0 mm 1 mps 722 mmHg 57%
    09:00 +35°C° 0 mm 2 mps 722 mmHg 50%
    10:00 +38°C° 0 mm 2 mps 722 mmHg 42%
    11:00 +39°C° 0 mm 2 mps 721 mmHg 38%
    12:00 +40°C° 0 mm 2 mps 721 mmHg 33%
    13:00 +42°C° 0 mm 1 mps 720 mmHg 29%
    14:00 +41°C° 0 mm 2 mps 719 mmHg 31%
    15:00 +40°C° 0 mm 2 mps 719 mmHg 33%
    16:00 +39°C° 0 mm 2 mps 719 mmHg 35%
    17:00 +36°C° 0 mm 2 mps 719 mmHg 43%
    18:00 +34°C° 0 mm 2 mps 719 mmHg 50%
    19:00 +31°C° 0 mm 1 mps 719 mmHg 57%
    20:00 +30°C° 0 mm 2 mps 719 mmHg 62%
    21:00 +29°C° 0 mm 2 mps 719 mmHg 66%
    22:00 +28°C° 0 mm 2 mps 720 mmHg 71%
    23:00 +28°C° 0 mm 2 mps 719 mmHg 73%

    Day after tomorrow, 22 April, Monday

    Time Temperature Precipitation Wind Pressure Humidity
    00:00 +28°C° 0 mm 2 mps 719 mmHg 76%
    01:00 +27°C° 0 mm 2 mps 719 mmHg 78%
    02:00 +27°C° 0 mm 2 mps 719 mmHg 80%
    03:00 +27°C° 0 mm 2 mps 719 mmHg 83%
    04:00 +26°C° 0 mm 2 mps 719 mmHg 85%
    05:00 +27°C° 0 mm 2 mps 720 mmHg 83%
    06:00 +28°C° 0 mm 2 mps 721 mmHg 80%
    07:00 +28°C° 0 mm 3 mps 722 mmHg 78%
    08:00 +31°C° 0 mm 3 mps 722 mmHg 68%
    09:00 +34°C° 0 mm 3 mps 722 mmHg 59%
    10:00 +36°C° 0 mm 3 mps 722 mmHg 49%
    11:00 +38°C° 0 mm 2 mps 722 mmHg 43%
    12:00 +41°C° 0 mm 1 mps 721 mmHg 36%
    13:00 +40°C° 0 mm 0 mps 720 mmHg 30%
    14:00 +39°C° 0 mm 0 mps 720 mmHg 31%
    15:00 +37°C° 0 mm 0 mps 719 mmHg 33%
    16:00 +36°C° 0 mm 0 mps 718 mmHg 34%
    17:00 +36°C° 0 mm 1 mps 719 mmHg 39%
    18:00 +34°C° 0 mm 1 mps 719 mmHg 43%
    19:00 +32°C° 0 mm 1 mps 719 mmHg 48%
    20:00 +30°C° 0.6 mm 1 mps 720 mmHg 60%
    21:00 +28°C° 0.6 mm 1 mps 720 mmHg 72%
    22:00 +27°C° 0.6 mm 2 mps 721 mmHg 84%
    23:00 +27°C° 0 mm 2 mps 720 mmHg 85%

    23 April, Tuesday

    Time Temperature Precipitation Wind Pressure Humidity
    00:00 +27°C° 0 mm 2 mps 720 mmHg 86%
    01:00 +26°C° 0 mm 2 mps 719 mmHg 87%
    02:00 +26°C° 0 mm 1 mps 719 mmHg 87%
    03:00 +26°C° 0 mm 1 mps 719 mmHg 87%
    04:00 +26°C° 0 mm 1 mps 719 mmHg 87%
    05:00 +26°C° 0 mm 1 mps 720 mmHg 84%
    06:00 +27°C° 0 mm 1 mps 721 mmHg 82%
    07:00 +28°C° 0 mm 1 mps 722 mmHg 79%
    08:00 +30°C° 0 mm 2 mps 722 mmHg 68%
    09:00 +34°C° 0 mm 2 mps 722 mmHg 57%
    10:00 +36°C° 0 mm 2 mps 722 mmHg 47%
    11:00 +38°C° 0 mm 2 mps 722 mmHg 42%
    12:00 +39°C° 0 mm 2 mps 721 mmHg 37%
    13:00 +41°C° 0 mm 1 mps 720 mmHg 33%
    14:00 +40°C° 0 mm 1 mps 720 mmHg 34%
    15:00 +39°C° 0 mm 1 mps 719 mmHg 35%
    16:00 +37°C° 0 mm 1 mps 719 mmHg 37%
    17:00 +36°C° 0 mm 1 mps 719 mmHg 42%
    18:00 +34°C° 0 mm 1 mps 720 mmHg 47%
    19:00 +32°C° 0 mm 1 mps 720 mmHg 52%
    20:00 +31°C° 0 mm 1 mps 720 mmHg 54%
    21:00 +31°C° 0 mm 1 mps 720 mmHg 55%
    22:00 +30°C° 0 mm 1 mps 721 mmHg 57%
    23:00 +30°C° 0 mm 1 mps 720 mmHg 59%

    24 April, Wednesday

    Time Temperature Precipitation Wind Pressure Humidity
    00:00 +29°C° 0 mm 1 mps 719 mmHg 62%
    01:00 +28°C° 0 mm 1 mps 719 mmHg 64%
    02:00 +28°C° 0 mm 1 mps 719 mmHg 66%
    03:00 +28°C° 0 mm 1 mps 719 mmHg 67%
    04:00 +27°C° 0 mm 1 mps 719 mmHg 69%
    05:00 +28°C° 0 mm 1 mps 720 mmHg 67%
    06:00 +29°C° 0 mm 1 mps 721 mmHg 64%
    07:00 +30°C° 0 mm 1 mps 721 mmHg 62%
    08:00 +33°C° 0 mm 1 mps 722 mmHg 54%
    09:00 +36°C° 0 mm 2 mps 722 mmHg 46%
    10:00 +39°C° 0 mm 2 mps 722 mmHg 38%
    11:00 +40°C° 0 mm 2 mps 721 mmHg 34%
    12:00 +42°C° 0 mm 1 mps 720 mmHg 29%
    13:00 +44°C° 0 mm 1 mps 720 mmHg 25%
    14:00 +43°C° 0 mm 1 mps 719 mmHg 27%
    15:00 +41°C° 0 mm 1 mps 719 mmHg 29%
    16:00 +40°C° 0 mm 1 mps 719 mmHg 31%
    17:00 +37°C° 0 mm 1 mps 719 mmHg 35%
    18:00 +35°C° 0 mm 1 mps 720 mmHg 38%
    19:00 +33°C° 0 mm 1 mps 720 mmHg 42%
    20:00 +32°C° 0 mm 1 mps 720 mmHg 46%
    21:00 +31°C° 0 mm 1 mps 720 mmHg 50%
    22:00 +30°C° 0 mm 2 mps 721 mmHg 54%
    23:00 +30°C° 0 mm 2 mps 720 mmHg 56%

    25 April, Thursday

    Time Temperature Precipitation Wind Pressure Humidity
    00:00 +30°C° 0 mm 2 mps 720 mmHg 57%
    01:00 +29°C° 0 mm 1 mps 719 mmHg 59%
    02:00 +29°C° 0 mm 1 mps 719 mmHg 60%
    03:00 +29°C° 0 mm 1 mps 719 mmHg 61%
    04:00 +28°C° 0 mm 1 mps 719 mmHg 62%
    05:00 +29°C° 0 mm 1 mps 720 mmHg 60%
    06:00 +30°C° 0 mm 2 mps 721 mmHg 58%
    07:00 +31°C° 0 mm 2 mps 721 mmHg 56%
    08:00 +35°C° 0 mm 2 mps 721 mmHg 47%
    09:00 +38°C° 0 mm 2 mps 722 mmHg 38%
    10:00 +41°C° 0 mm 2 mps 722 mmHg 29%
    11:00 +42°C° 0 mm 2 mps 721 mmHg 28%
    12:00 +42°C° 0 mm 1 mps 720 mmHg 26%
    13:00 +43°C° 0 mm 1 mps 719 mmHg 25%
    14:00 +42°C° 0 mm 1 mps 719 mmHg 27%
    15:00 +40°C° 0 mm 1 mps 718 mmHg 29%
    16:00 +39°C° 0 mm 1 mps 718 mmHg 31%
    17:00 +37°C° 0 mm 1 mps 718 mmHg 35%
    18:00 +36°C° 0 mm 2 mps 719 mmHg 39%
    19:00 +34°C° 0 mm 2 mps 719 mmHg 43%
    20:00 +34°C° 0 mm 2 mps 719 mmHg 44%
    21:00 +32°C° 0 mm 1 mps 719 mmHg 45%
    22:00 +32°C° 0 mm 1 mps 720 mmHg 45%
    23:00 +31°C° 0 mm 1 mps 719 mmHg 48%
    Show more